| time (UTC) | temp F | wind direction | speed MPH | gust MPH | rain 1hr in | rain 24hr in | rain mn in | humidity % | barometer mb |
| 20260504185506 | 74 | 26 | 0.0 | 2.0 | 0.00 | 0.00 | 0.00 | 32 | 1007.0 |
| 20260504185006 | 76 | 153 | 1.0 | 2.0 | 0.00 | 0.00 | 0.00 | 29 | 1007.1 |
| 20260504184012 | 75 | 113 | 1.0 | 6.0 | 0.00 | 0.00 | 0.00 | 31 | 1007.2 |
| 20260504183503 | 73 | 16 | 1.0 | 6.0 | 0.00 | 0.00 | 0.00 | 32 | 1007.2 |
| 20260504183003 | 75 | 146 | 2.0 | 5.0 | 0.00 | 0.00 | 0.00 | 31 | 1007.3 |
| 20260504182504 | 75 | 51 | 1.0 | 4.0 | 0.00 | 0.00 | 0.00 | 31 | 1007.3 |
| 20260504182003 | 75 | 26 | 1.0 | 4.0 | 0.00 | 0.00 | 0.00 | 31 | 1007.4 |
| 20260504181504 | 75 | 38 | 1.0 | 3.0 | 0.00 | 0.00 | 0.00 | 34 | 1007.4 |
| 20260504181003 | 75 | 132 | 1.0 | 3.0 | 0.00 | 0.00 | 0.00 | 32 | 1007.5 |
| 20260504180503 | 74 | 44 | 0.0 | 2.0 | 0.00 | 0.00 | 0.00 | 34 | 1007.6 |
| 20260504180004 | 74 | 22 | 0.0 | 3.0 | 0.00 | 0.00 | 0.00 | 36 | 1007.7 |
| 20260504175502 | 73 | 126 | 1.0 | 3.0 | 0.00 | 0.00 | 0.00 | 35 | 1007.6 |
| 20260504175002 | 74 | 163 | 0.0 | 2.0 | 0.00 | 0.00 | 0.00 | 34 | 1007.6 |
| 20260504174503 | 73 | 313 | 1.0 | 3.0 | 0.00 | 0.00 | 0.00 | 34 | 1007.8 |
| 20260504174002 | 73 | 138 | 1.0 | 3.0 | 0.00 | 0.00 | 0.00 | 34 | 1007.8 |
| 20260504173505 | 74 | 15 | 1.0 | 3.0 | 0.00 | 0.00 | 0.00 | 33 | 1007.8 |
| 20260504173004 | 73 | 129 | 1.0 | 4.0 | 0.00 | 0.00 | 0.00 | 36 | 1007.8 |
| 20260504172507 | 73 | 23 | 1.0 | 4.0 | 0.00 | 0.00 | 0.00 | 36 | 1007.9 |
| 20260504172003 | 72 | 153 | 1.0 | 4.0 | 0.00 | 0.00 | 0.00 | 36 | 1007.9 |
| 20260504171504 | 72 | 267 | 1.0 | 4.0 | 0.00 | 0.00 | 0.00 | 35 | 1007.8 |
| 20260504171003 | 72 | 148 | 1.0 | 8.0 | 0.00 | 0.00 | 0.00 | 37 | 1007.9 |
| 20260504170503 | 72 | 9 | 2.0 | 8.0 | 0.00 | 0.00 | 0.00 | 35 | 1008.0 |
| 20260504151002 | 65 | 164 | 1.0 | 8.0 | 0.00 | 0.00 | 0.00 | 40 | 1009.0 |
| 20260504150504 | 66 | 152 | 1.0 | 4.0 | 0.00 | 0.00 | 0.00 | 39 | 1009.0 |
| 20260504140502 | 59 | 161 | 0.0 | 5.0 | 0.00 | 0.00 | 0.00 | 45 | 1009.8 |
| 20260504110506 | 50 | 84 | 0.0 | 2.0 | 0.00 | 0.00 | 0.00 | 55 | 1010.6 |
| 20260504100506 | 0 | 0.0 | 0.0 | 0.00 | 0.00 | 0.00 | 1010.4 | ||
| 20260504082007 | 0 | 0.0 | 0.0 | 0.00 | 0.00 | 0.00 | 1010.7 | ||
| 20260504081528 | 0 | 0.0 | 0.0 | 0.00 | 0.00 | 0.00 | 1010.8 | ||
| 20260504081007 | 0 | 0.0 | 0.0 | 0.00 | 0.00 | 0.00 | 1010.7 | ||
| 20260504080512 | 0 | 0.0 | 0.0 | 0.00 | 0.00 | 0.00 | 1010.8 | ||
| 20260504050507 | 49 | 331 | 0.0 | 2.0 | 0.00 | 0.00 | 0.00 | 56 | 1011.1 |
| 20260504050024 | 50 | 330 | 0.0 | 2.0 | 0.00 | 0.00 | 0.00 | 55 | 1011.2 |
| 20260504045506 | 50 | 331 | 0.0 | 2.0 | 0.00 | 0.00 | 0.00 | 54 | 1011.3 |
| 20260504045005 | 50 | 333 | 0.0 | 2.0 | 0.00 | 0.00 | 0.00 | 54 | 1011.2 |
| 20260504044512 | 50 | 333 | 0.0 | 2.0 | 0.00 | 0.00 | 0.00 | 53 | 1011.2 |
| 20260504044003 | 50 | 333 | 0.0 | 2.0 | 0.00 | 0.00 | 0.00 | 54 | 1011.2 |
| 20260504043504 | 50 | 333 | 0.0 | 2.0 | 0.00 | 0.00 | 0.00 | 53 | 1011.2 |
| 20260504043012 | 49 | 333 | 0.0 | 2.0 | 0.00 | 0.00 | 0.00 | 58 | 1011.2 |
| 20260504042506 | 50 | 333 | 0.0 | 2.0 | 0.00 | 0.00 | 0.00 | 57 | 1011.2 |
| 20260504042004 | 50 | 333 | 0.0 | 2.0 | 0.00 | 0.00 | 0.00 | 55 | 1011.1 |
| 20260504041515 | 50 | 333 | 0.0 | 2.0 | 0.00 | 0.00 | 0.00 | 57 | 1011.1 |
| 20260504041006 | 51 | 333 | 0.0 | 2.0 | 0.00 | 0.00 | 0.00 | 56 | 1011.2 |
| 20260504040507 | 51 | 333 | 0.0 | 2.0 | 0.00 | 0.00 | 0.00 | 55 | 1011.2 |
| 20260504040022 | 51 | 333 | 0.0 | 2.0 | 0.00 | 0.00 | 0.00 | 54 | 1011.2 |
| 20260504035507 | 51 | 333 | 0.0 | 2.0 | 0.00 | 0.00 | 0.00 | 55 | 1011.2 |
| 20260504035007 | 51 | 331 | 0.0 | 2.0 | 0.00 | 0.00 | 0.00 | 56 | 1011.2 |
| 20260504034526 | 51 | 331 | 0.0 | 2.0 | 0.00 | 0.00 | 0.00 | 53 | 1011.2 |
| 20260504034010 | 51 | 313 | 0.0 | 2.0 | 0.00 | 0.00 | 0.00 | 55 | 1011.3 |
| 20260504033504 | 51 | 312 | 0.0 | 2.0 | 0.00 | 0.00 | 0.00 | 57 | 1011.4 |
| 20260504033007 | 51 | 312 | 0.0 | 2.0 | 0.00 | 0.00 | 0.00 | 55 | 1011.5 |
| 20260504032503 | 51 | 312 | 0.0 | 2.0 | 0.00 | 0.00 | 0.00 | 55 | 1011.5 |
| 20260504032003 | 51 | 312 | 0.0 | 2.0 | 0.00 | 0.00 | 0.00 | 56 | 1011.6 |
| 20260504031513 | 52 | 306 | 0.0 | 2.0 | 0.00 | 0.00 | 0.00 | 55 | 1011.6 |
| 20260504031002 | 52 | 306 | 0.0 | 2.0 | 0.00 | 0.00 | 0.00 | 55 | 1011.6 |
| 20260504030506 | 52 | 307 | 0.0 | 2.0 | 0.00 | 0.00 | 0.00 | 56 | 1011.5 |
| 20260504030022 | 52 | 306 | 0.0 | 2.0 | 0.00 | 0.00 | 0.00 | 58 | 1011.5 |
| 20260504025507 | 52 | 306 | 0.0 | 2.0 | 0.00 | 0.00 | 0.00 | 52 | 1011.5 |
| 20260504025009 | 52 | 306 | 0.0 | 2.0 | 0.00 | 0.00 | 0.00 | 54 | 1011.6 |
| 20260504024525 | 53 | 306 | 0.0 | 2.0 | 0.00 | 0.00 | 0.00 | 53 | 1011.6 |
| 20260504024008 | 53 | 306 | 0.0 | 2.0 | 0.00 | 0.00 | 0.00 | 49 | 1011.6 |
| 20260504023509 | 53 | 306 | 0.0 | 0.0 | 0.00 | 0.00 | 0.00 | 47 | 1011.7 |
| 20260504023025 | 53 | 306 | 0.0 | 2.0 | 0.00 | 0.00 | 0.00 | 47 | 1011.7 |
| 20260504022510 | 53 | 306 | 0.0 | 2.0 | 0.00 | 0.00 | 0.00 | 47 | 1011.8 |
| 20260504022004 | 53 | 306 | 0.0 | 2.0 | 0.00 | 0.00 | 0.00 | 47 | 1011.8 |
| 20260504021513 | 53 | 323 | 0.0 | 2.0 | 0.00 | 0.00 | 0.00 | 47 | 1011.8 |
| 20260504021003 | 53 | 323 | 0.0 | 2.0 | 0.00 | 0.00 | 0.00 | 51 | 1011.9 |
| 20260504020504 | 53 | 322 | 0.0 | 1.0 | 0.00 | 0.00 | 0.00 | 48 | 1011.9 |
| 20260504020020 | 53 | 322 | 0.0 | 1.0 | 0.00 | 0.00 | 0.00 | 48 | 1011.9 |
| 20260504015504 | 53 | 322 | 0.0 | 1.0 | 0.00 | 0.00 | 0.00 | 49 | 1011.8 |
| 20260504015005 | 53 | 322 | 0.0 | 0.0 | 0.00 | 0.00 | 0.00 | 48 | 1011.8 |
| 20260504014522 | 53 | 322 | 0.0 | 2.0 | 0.00 | 0.00 | 0.00 | 49 | 1011.8 |
| 20260504014009 | 54 | 322 | 0.0 | 2.0 | 0.00 | 0.00 | 0.00 | 48 | 1011.7 |
| 20260504013513 | 54 | 323 | 0.0 | 3.0 | 0.00 | 0.00 | 0.00 | 48 | 1011.6 |
| 20260504013030 | 54 | 271 | 0.0 | 3.0 | 0.00 | 0.00 | 0.00 | 46 | 1011.7 |
| 20260504012509 | 54 | 306 | 0.0 | 4.0 | 0.00 | 0.00 | 0.00 | 45 | 1011.8 |
| 20260504012006 | 54 | 265 | 0.0 | 5.0 | 0.00 | 0.00 | 0.00 | 45 | 1011.8 |
| 20260504011527 | 55 | 57 | 1.0 | 5.0 | 0.00 | 0.00 | 0.00 | 45 | 1012.0 |
| 20260504011009 | 55 | 280 | 1.0 | 8.0 | 0.00 | 0.00 | 0.00 | 44 | 1012.0 |
| 20260504010503 | 54 | 275 | 1.0 | 8.0 | 0.00 | 0.00 | 0.00 | 45 | 1012.0 |
| 20260504010012 | 54 | 17 | 0.0 | 2.0 | 0.00 | 0.00 | 0.00 | 46 | 1011.9 |
| 20260504005503 | 54 | 105 | 1.0 | 2.0 | 0.00 | 0.00 | 0.00 | 45 | 1011.7 |
| 20260504005006 | 55 | 314 | 0.0 | 2.0 | 0.00 | 0.00 | 0.00 | 45 | 1011.6 |
| 20260504004533 | 55 | 65 | 0.0 | 2.0 | 0.00 | 0.00 | 0.00 | 44 | 1011.4 |
| 20260504004005 | 55 | 128 | 0.0 | 5.0 | 0.00 | 0.00 | 0.00 | 43 | 1011.4 |
| 20260504003502 | 55 | 146 | 0.0 | 5.0 | 0.00 | 0.00 | 0.00 | 43 | 1011.4 |
| 20260504003004 | 55 | 225 | 1.0 | 3.0 | 0.00 | 0.00 | 0.00 | 41 | 1011.2 |
| 20260504002502 | 55 | 51 | 0.0 | 7.0 | 0.00 | 0.00 | 0.00 | 43 | 1011.1 |
| 20260504002003 | 55 | 55 | 0.0 | 7.0 | 0.00 | 0.00 | 0.00 | 44 | 1011.0 |
| 20260504001512 | 55 | 133 | 2.0 | 6.0 | 0.00 | 0.00 | 0.00 | 42 | 1010.7 |
| 20260504001002 | 55 | 57 | 0.0 | 4.0 | 0.00 | 0.00 | 0.00 | 44 | 1011.0 |
| 20260504000504 | 55 | 144 | 1.0 | 4.0 | 0.00 | 0.00 | 0.00 | 44 | 1011.0 |
| 20260504000011 | 55 | 123 | 1.0 | 4.0 | 0.00 | 0.00 | 0.00 | 45 | 1011.2 |
| 20260503235502 | 55 | 152 | 1.0 | 2.0 | 0.00 | 0.00 | 0.00 | 46 | 1011.3 |
| 20260503235005 | 55 | 317 | 0.0 | 3.0 | 0.00 | 0.00 | 0.00 | 44 | 1011.2 |
| 20260503234518 | 55 | 289 | 0.0 | 6.0 | 0.00 | 0.00 | 0.00 | 44 | 1011.3 |
| 20260503234006 | 55 | 227 | 1.0 | 6.0 | 0.00 | 0.00 | 0.00 | 42 | 1011.5 |
| 20260503233509 | 55 | 173 | 1.0 | 5.0 | 0.00 | 0.00 | 0.00 | 43 | 1011.3 |
| 20260503233004 | 55 | 302 | 0.0 | 2.0 | 0.00 | 0.00 | 0.00 | 44 | 1011.3 |
| 20260503232502 | 55 | 279 | 0.0 | 2.0 | 0.00 | 0.00 | 0.00 | 46 | 1011.0 |
| 20260503232002 | 55 | 270 | 0.0 | 3.0 | 0.00 | 0.00 | 0.00 | 43 | 1011.0 |
| 20260503231506 | 55 | 106 | 0.0 | 3.0 | 0.00 | 0.00 | 0.00 | 43 | 1010.8 |
| 20260503231004 | 55 | 201 | 1.0 | 2.0 | 0.00 | 0.00 | 0.00 | 44 | 1010.8 |
| 20260503230503 | 55 | 122 | 0.0 | 2.0 | 0.00 | 0.00 | 0.00 | 45 | 1010.8 |
| 20260503230010 | 56 | 122 | 0.0 | 2.0 | 0.00 | 0.00 | 0.00 | 44 | 1010.6 |
| 20260503225503 | 56 | 126 | 0.0 | 2.0 | 0.00 | 0.00 | 0.00 | 43 | 1010.6 |
| 20260503225003 | 56 | 126 | 0.0 | 2.0 | 0.00 | 0.00 | 0.00 | 43 | 1010.5 |
| 20260503224511 | 56 | 126 | 0.0 | 2.0 | 0.00 | 0.00 | 0.00 | 48 | 1010.6 |
| 20260503224005 | 56 | 126 | 0.0 | 2.0 | 0.00 | 0.00 | 0.00 | 41 | 1010.6 |
| 20260503223508 | 56 | 126 | 0.0 | 2.0 | 0.00 | 0.00 | 0.00 | 42 | 1010.5 |
| 20260503223016 | 55 | 126 | 0.0 | 2.0 | 0.00 | 0.00 | 0.00 | 42 | 1010.6 |
| 20260503222507 | 55 | 126 | 0.0 | 2.0 | 0.00 | 0.00 | 0.00 | 40 | 1010.6 |
| 20260503222007 | 55 | 107 | 0.0 | 2.0 | 0.00 | 0.00 | 0.00 | 43 | 1010.7 |
| 20260503221503 | 55 | 117 | 0.0 | 2.0 | 0.00 | 0.00 | 0.00 | 42 | 1010.7 |
| 20260503221002 | 56 | 121 | 0.0 | 2.0 | 0.00 | 0.00 | 0.00 | 43 | 1010.7 |
| 20260503220502 | 56 | 122 | 0.0 | 2.0 | 0.00 | 0.00 | 0.00 | 40 | 1010.7 |
| 20260503220019 | 56 | 122 | 0.0 | 2.0 | 0.00 | 0.00 | 0.00 | 39 | 1010.8 |
| 20260503215502 | 56 | 26 | 0.0 | 2.0 | 0.00 | 0.00 | 0.00 | 38 | 1010.9 |
| 20260503215003 | 56 | 26 | 0.0 | 2.0 | 0.00 | 0.00 | 0.00 | 39 | 1010.9 |
| 20260503214520 | 56 | 165 | 0.0 | 2.0 | 0.00 | 0.00 | 0.00 | 40 | 1010.9 |
| 20260503214003 | 56 | 174 | 0.0 | 2.0 | 0.00 | 0.00 | 0.00 | 39 | 1010.9 |
| 20260503213502 | 57 | 136 | 0.0 | 2.0 | 0.00 | 0.00 | 0.00 | 38 | 1010.9 |
| 20260503213028 | 57 | 171 | 1.0 | 2.0 | 0.00 | 0.00 | 0.00 | 38 | 1010.9 |
| 20260503212507 | 57 | 270 | 0.0 | 2.0 | 0.00 | 0.00 | 0.00 | 38 | 1010.9 |
| 20260503212008 | 57 | 271 | 0.0 | 2.0 | 0.00 | 0.00 | 0.00 | 39 | 1010.9 |
| 20260503211521 | 57 | 352 | 0.0 | 2.0 | 0.00 | 0.00 | 0.00 | 39 | 1010.9 |
| 20260503211006 | 57 | 250 | 0.0 | 2.0 | 0.00 | 0.00 | 0.00 | 40 | 1010.9 |
| 20260503210509 | 57 | 30 | 0.0 | 2.0 | 0.00 | 0.00 | 0.00 | 38 | 1011.0 |
| 20260503210011 | 57 | 179 | 0.0 | 2.0 | 0.00 | 0.00 | 0.00 | 38 | 1011.0 |
| 20260503205502 | 57 | 279 | 0.0 | 2.0 | 0.00 | 0.00 | 0.00 | 39 | 1011.2 |
| 20260503205005 | 56 | 327 | 0.0 | 2.0 | 0.00 | 0.00 | 0.00 | 40 | 1011.3 |
| 20260503204518 | 56 | 345 | 0.0 | 2.0 | 0.00 | 0.00 | 0.00 | 40 | 1011.2 |
| 20260503204003 | 55 | 119 | 0.0 | 2.0 | 0.00 | 0.00 | 0.00 | 40 | 1011.3 |
| 20260503203505 | 55 | 145 | 0.0 | 2.0 | 0.00 | 0.00 | 0.00 | 43 | 1011.4 |
| 20260503203015 | 55 | 319 | 0.0 | 2.0 | 0.00 | 0.00 | 0.00 | 40 | 1011.5 |
| 20260503202511 | 55 | 136 | 0.0 | 2.0 | 0.00 | 0.00 | 0.00 | 42 | 1011.5 |
| 20260503202008 | 55 | 63 | 0.0 | 2.0 | 0.00 | 0.00 | 0.00 | 42 | 1011.5 |
| 20260503201518 | 55 | 350 | 0.0 | 2.0 | 0.00 | 0.00 | 0.00 | 43 | 1011.6 |
| 20260503201007 | 55 | 37 | 0.0 | 3.0 | 0.00 | 0.00 | 0.00 | 43 | 1011.6 |
| 20260503200506 | 55 | 138 | 1.0 | 3.0 | 0.00 | 0.00 | 0.00 | 40 | 1011.6 |
| 20260503200021 | 56 | 284 | 0.0 | 2.0 | 0.00 | 0.00 | 0.00 | 39 | 1011.7 |
| 20260503195510 | 57 | 329 | 1.0 | 5.0 | 0.00 | 0.00 | 0.00 | 39 | 1011.7 |
| 20260503195009 | 57 | 209 | 0.0 | 4.0 | 0.00 | 0.00 | 0.00 | 39 | 1011.7 |
| 20260503194507 | 57 | 138 | 1.0 | 4.0 | 0.00 | 0.00 | 0.00 | 42 | 1011.7 |
| 20260503194002 | 57 | 281 | 0.0 | 2.0 | 0.00 | 0.00 | 0.00 | 40 | 1011.8 |
| 20260503193503 | 56 | 338 | 1.0 | 2.0 | 0.00 | 0.00 | 0.00 | 40 | 1011.9 |
| 20260503193011 | 55 | 338 | 0.0 | 2.0 | 0.00 | 0.00 | 0.00 | 40 | 1012.0 |
| 20260503192507 | 55 | 315 | 0.0 | 4.0 | 0.00 | 0.00 | 0.00 | 39 | 1012.1 |
| 20260503192007 | 55 | 273 | 1.0 | 4.0 | 0.00 | 0.00 | 0.00 | 40 | 1012.1 |
| 20260503191514 | 54 | 279 | 0.0 | 2.0 | 0.00 | 0.00 | 0.00 | 39 | 1012.1 |
| 20260503191007 | 54 | 28 | 0.0 | 3.0 | 0.00 | 0.00 | 0.00 | 39 | 1012.1 |
| 20260503190507 | 54 | 247 | 1.0 | 3.0 | 0.00 | 0.00 | 0.00 | 38 | 1012.1 |
| 20260503190031 | 54 | 271 | 0.0 | 2.0 | 0.00 | 0.00 | 0.00 | 36 | 1012.1 |